Time,TemperatureF,DewpointF,PressureIn,WindDirection,WindDirectionDegrees,WindSpeedMPH,WindSpeedGustMPH,Humidity,HourlyPrecipIn,Conditions,Clouds,dailyrainin,SoftwareType,DateUTC
2013-07-29 00:00:00,59.0,-99.9,-100.00,South,189,5.0,-999.0,-999,-99.99,,,-99.99,,2013-07-29 07:00:00,
2013-07-29 01:00:00,59.0,-99.9,-100.00,South,171,2.0,-999.0,-999,-99.99,,,-99.99,,2013-07-29 08:00:00,
2013-07-29 03:00:00,58.0,-99.9,-100.00,South,175,2.0,-999.0,-999,-99.99,,,-99.99,,2013-07-29 10:00:00,
2013-07-29 04:00:00,58.0,-99.9,-100.00,South,178,2.0,-999.0,-999,-99.99,,,-99.99,,2013-07-29 11:00:00,
2013-07-29 05:00:00,58.0,-99.9,-100.00,South,186,3.0,-999.0,-999,-99.99,,,-99.99,,2013-07-29 12:00:00,
2013-07-29 06:00:00,58.0,-99.9,-100.00,South,188,3.0,-999.0,-999,-99.99,,,-99.99,,2013-07-29 13:00:00,
2013-07-29 07:00:00,59.0,-99.9,-100.00,SSE,168,2.0,-999.0,-999,-99.99,,,-99.99,,2013-07-29 14:00:00,
2013-07-29 08:00:00,60.0,-99.9,-100.00,WSW,252,2.0,-999.0,-999,-99.99,,,-99.99,,2013-07-29 15:00:00,
2013-07-29 09:00:00,61.0,-99.9,-100.00,NW,320,3.0,-999.0,-999,-99.99,,,-99.99,,2013-07-29 16:00:00,
2013-07-29 10:00:00,63.0,-99.9,-100.00,WSW,243,3.0,-999.0,-999,-99.99,,,-99.99,,2013-07-29 17:00:00,
2013-07-29 11:00:00,64.0,-99.9,-100.00,SSW,195,3.0,-999.0,-999,-99.99,,,-99.99,,2013-07-29 18:00:00,
2013-07-29 12:00:00,65.0,-99.9,-100.00,WNW,295,3.0,-999.0,-999,-99.99,,,-99.99,,2013-07-29 19:00:00,
2013-07-29 13:00:00,67.0,-99.9,-100.00,South,176,5.0,-999.0,-999,-99.99,,,-99.99,,2013-07-29 20:00:00,
2013-07-29 14:00:00,71.0,-99.9,-100.00,NNW,341,3.0,-999.0,-999,-99.99,,,-99.99,,2013-07-29 21:00:00,
2013-07-29 15:00:00,72.0,-99.9,-100.00,SSW,205,3.0,-999.0,-999,-99.99,,,-99.99,,2013-07-29 22:00:00,
2013-07-29 16:00:00,71.0,-99.9,-100.00,South,185,3.0,-999.0,-999,-99.99,,,-99.99,,2013-07-29 23:00:00,
2013-07-29 17:00:00,72.0,-99.9,-100.00,NNW,334,3.0,-999.0,-999,-99.99,,,-99.99,,2013-07-30 00:00:00,
2013-07-29 18:00:00,73.0,-99.9,-100.00,NNW,333,3.0,-999.0,-999,-99.99,,,-99.99,,2013-07-30 01:00:00,
2013-07-29 19:00:00,73.0,-99.9,-100.00,NNW,340,2.0,-999.0,-999,-99.99,,,-99.99,,2013-07-30 02:00:00,
2013-07-29 20:00:00,72.0,-99.9,-100.00,NW,320,2.0,-999.0,-999,-99.99,,,-99.99,,2013-07-30 03:00:00,
2013-07-29 21:00:00,71.0,-99.9,-100.00,NW,324,2.0,-999.0,-999,-99.99,,,-99.99,,2013-07-30 04:00:00,
2013-07-29 22:00:00,70.0,-99.9,-100.00,NW,320,1.0,-999.0,-999,-99.99,,,-99.99,,2013-07-30 05:00:00,
2013-07-29 23:00:00,68.0,-99.9,-100.00,WNW,287,2.0,-999.0,-999,-99.99,,,-99.99,,2013-07-30 06:00:00,